, AK

(GMT )
Denali Park

Weather History for PAIN - January, 2013

Change the Weather History Date:

Thursday, January 31, 2013

  Actual Average Record
Temperature  
Mean Temperature 16 °F -  
Max Temperature 28 °F 11 °F 51 °F (2007)
Min Temperature 5 °F -8 °F -37 °F (1989)
Degree Days  
Heating Degree Days 48    
Moisture  
Dew Point 13 °F    
Average Humidity 91    
Maximum Humidity 100    
Minimum Humidity 58    
Precipitation  
Precipitation 0.00 in - - ()
Sea Level Pressure  
Sea Level Pressure 29.75 in    
Wind  
Wind Speed 4 mph (North)    
Max Wind Speed 16 mph    
Max Gust Speed 22 mph    
Visibility 8 miles    
Events      
Averages and records for this station are not official NWS values.
T = Trace of Precipitation, MM = Missing Value Source: NWS Daily Summary

Daily Weather History Graph

Daily Weather History Graph

Search for Another Location

Airport or City:

Trip Planner

Search our weather history database for the weather conditions in past years. The results will help you decide how hot, cold, wet, or windy it might be!

Date:

Astronomy

Jan. 31, 2013 Rise Set
Actual Time 9:34 AM AKST 4:44 PM AKST
Civil Twilight 8:38 AM AKST 5:41 PM AKST
Nautical Twilight 7:40 AM AKST 6:39 PM AKST
Astronomical Twilight 6:45 AM AKST 7:34 PM AKST
Moon No Moon Rise 9:39 AM AKST (1/31)
Length of Visible Light 9h 02m
Length of Day
7h 10m
Waning Gibbous, 78% of the Moon is Illuminated
Jan 31
Waning Gibbous
Feb 3
Last Quarter
Feb 9
New
Feb 17
First Quarter
Feb 25
Full

Hourly Weather History & Observations

Time (AKST) Temp. Windchill Dew Point Humidity Pressure Visibility Wind Dir Wind Speed Gust Speed Precip Events Conditions
12:16 AM 19.4 °F 14.3 °F 10.4 °F 68% 29.58 in 10.0 mi North 3.5 mph - N/A   Mostly Cloudy
12:36 AM 21.2 °F - 21.2 °F 100% 29.58 in 10.0 mi Calm Calm - N/A   Overcast
12:56 AM 28.4 °F 24.6 °F 28.4 °F 100% 29.58 in 10.0 mi SE 3.5 mph - N/A   Overcast
1:16 AM 17.6 °F 10.7 °F 5.0 °F 58% 29.58 in 10.0 mi North 4.6 mph - N/A   Overcast
1:36 AM 8.6 °F 0.1 °F 1.4 °F 73% 29.59 in 10.0 mi NNE 4.6 mph - N/A   Overcast
1:56 AM 6.8 °F -0.1 °F 1.4 °F 79% 29.60 in 10.0 mi NNE 3.5 mph - N/A   Overcast
2:16 AM 5.0 °F - 1.4 °F 85% 29.60 in 10.0 mi Calm Calm - N/A   Overcast
2:36 AM 5.0 °F - 1.4 °F 85% 29.60 in 10.0 mi Calm Calm - N/A   Overcast
2:56 AM 6.8 °F - 3.2 °F 85% 29.61 in 10.0 mi Calm Calm - N/A   Overcast
3:16 AM 8.6 °F - 5.0 °F 85% 29.61 in 10.0 mi Calm Calm - N/A   Overcast
3:36 AM 8.6 °F - 3.2 °F 79% 29.61 in 10.0 mi Calm Calm - N/A   Overcast
3:56 AM 8.6 °F - 3.2 °F 79% 29.61 in 10.0 mi Calm Calm - N/A   Scattered Clouds
4:16 AM 6.8 °F - 3.2 °F 85% 29.62 in 10.0 mi Calm Calm - N/A   Clear
4:36 AM 6.8 °F - 3.2 °F 85% 29.62 in 10.0 mi Calm Calm - N/A   Clear
4:56 AM 6.8 °F - 5.0 °F 92% 29.62 in 10.0 mi Calm Calm - N/A   Mostly Cloudy
5:16 AM 6.8 °F - 5.0 °F 92% 29.63 in 10.0 mi Calm Calm - N/A   Scattered Clouds
5:36 AM 6.8 °F - 5.0 °F 92% 29.63 in 10.0 mi Calm Calm - N/A   Mostly Cloudy
5:56 AM 8.6 °F - 6.8 °F 92% 29.64 in 10.0 mi Calm Calm - N/A   Overcast
6:16 AM 8.6 °F - 8.6 °F 100% 29.64 in 10.0 mi Calm Calm - N/A   Overcast
6:36 AM 10.4 °F - 8.6 °F 92% 29.64 in 10.0 mi Calm Calm - N/A   Overcast
6:56 AM 12.2 °F - 10.4 °F 92% 29.65 in 10.0 mi Calm Calm - N/A   Overcast
7:16 AM 12.2 °F - 10.4 °F 92% 29.65 in 10.0 mi Calm Calm - N/A   Overcast
7:36 AM 12.2 °F - 10.4 °F 92% 29.66 in 10.0 mi Calm Calm - N/A   Overcast
7:56 AM 15.8 °F - 12.2 °F 86% 29.66 in 10.0 mi Calm Calm - N/A   Overcast
8:16 AM 15.8 °F - 14.0 °F 93% 29.67 in 10.0 mi Calm Calm - N/A   Mostly Cloudy
8:36 AM 15.8 °F - 14.0 °F 93% 29.67 in 10.0 mi Calm Calm - N/A   Overcast
8:56 AM 17.6 °F - 14.0 °F 86% 29.68 in 10.0 mi Calm Calm - N/A   Overcast
9:16 AM 17.6 °F - 14.0 °F 86% 29.69 in 10.0 mi Calm Calm - N/A   Overcast
9:36 AM 17.6 °F - 14.0 °F 86% 29.70 in 10.0 mi Calm Calm - N/A   Overcast
9:56 AM 17.6 °F - 15.8 °F 93% 29.70 in 10.0 mi Calm Calm - N/A   Overcast
10:16 AM 21.2 °F - 19.4 °F 93% 29.71 in 10.0 mi Calm Calm - N/A   Overcast
10:36 AM 21.2 °F - 19.4 °F 93% 29.72 in 10.0 mi Calm Calm - N/A   Overcast
10:56 AM 19.4 °F - 17.6 °F 93% 29.73 in 10.0 mi Calm Calm - N/A   Overcast
11:16 AM 19.4 °F - 15.8 °F 86% 29.74 in 7.0 mi Calm Calm - N/A   Overcast
11:36 AM 19.4 °F - 15.8 °F 86% 29.75 in 1.5 mi Calm Calm - N/A   Overcast
11:56 AM 17.6 °F 9.3 °F 15.8 °F 93% 29.75 in 4.0 mi North 5.8 mph - N/A   Overcast
12:16 PM 15.8 °F 1.4 °F 12.2 °F 86% 29.76 in 3.0 mi North 13.8 mph 19.6 mph N/A   Overcast
12:36 PM 15.8 °F 0.3 °F 14.0 °F 93% 29.77 in 1.8 mi North 16.1 mph 21.9 mph N/A   Overcast
12:56 PM 15.8 °F 2.7 °F 14.0 °F 93% 29.78 in 1.5 mi North 11.5 mph 18.4 mph N/A   Overcast
1:16 PM 15.8 °F 2.7 °F 14.0 °F 93% 29.79 in 1.0 mi North 11.5 mph 19.6 mph N/A   Overcast
1:36 PM 15.8 °F 2.1 °F 15.8 °F 100% 29.79 in 1.0 mi North 12.7 mph 17.3 mph N/A   Overcast
1:56 PM 17.6 °F 6.4 °F 15.8 °F 93% 29.80 in 1.5 mi North 9.2 mph 17.3 mph N/A   Overcast
2:16 PM 17.6 °F 6.4 °F 15.8 °F 93% 29.80 in 2.0 mi North 9.2 mph 16.1 mph N/A   Overcast
2:36 PM 19.4 °F 10.4 °F 17.6 °F 93% 29.81 in 5.0 mi North 6.9 mph - N/A   Overcast
2:56 PM 19.4 °F 11.5 °F 15.8 °F 86% 29.81 in 10.0 mi North 5.8 mph - N/A   Mostly Cloudy
3:16 PM 19.4 °F 11.5 °F 15.8 °F 86% 29.82 in 10.0 mi North 5.8 mph - N/A   Overcast
3:36 PM 17.6 °F 8.2 °F 15.8 °F 93% 29.83 in 10.0 mi North 6.9 mph - N/A   Overcast
3:56 PM 19.4 °F 11.5 °F 15.8 °F 86% 29.83 in 10.0 mi NNE 5.8 mph - N/A   Overcast
4:16 PM 17.6 °F 7.3 °F 15.8 °F 93% 29.83 in 10.0 mi North 8.1 mph - N/A   Overcast
4:36 PM 15.8 °F 2.1 °F 14.0 °F 93% 29.84 in 9.0 mi North 12.7 mph 18.4 mph N/A   Overcast
5:16 PM 15.8 °F 5.1 °F 14.0 °F 93% 29.85 in 10.0 mi North 8.1 mph 16.1 mph N/A   Overcast
5:36 PM 15.8 °F 4.2 °F 15.8 °F 100% 29.85 in 10.0 mi North 9.2 mph - N/A   Overcast
6:16 PM 15.8 °F 2.1 °F 15.8 °F 100% 29.86 in 5.0 mi North 12.7 mph 21.9 mph N/A   Overcast
6:36 PM 15.8 °F 2.7 °F 15.8 °F 100% 29.87 in 10.0 mi North 11.5 mph 17.3 mph N/A   Overcast
6:56 PM 15.8 °F 3.4 °F 14.0 °F 93% 29.88 in 10.0 mi North 10.4 mph 18.4 mph N/A   Overcast
7:16 PM 15.8 °F 3.4 °F 14.0 °F 93% 29.88 in 10.0 mi North 10.4 mph 17.3 mph N/A   Overcast
7:36 PM 15.8 °F 3.4 °F 15.8 °F 100% 29.89 in 6.0 mi North 10.4 mph - N/A   Overcast
7:56 PM 15.8 °F 6.1 °F 15.8 °F 100% 29.89 in 3.0 mi North 6.9 mph - N/A   Overcast
8:16 PM 15.8 °F 4.2 °F 15.8 °F 100% 29.89 in 6.0 mi North 9.2 mph 18.4 mph N/A   Overcast
8:36 PM 15.8 °F 0.9 °F 15.8 °F 100% 29.89 in 10.0 mi North 15.0 mph 18.4 mph N/A   Overcast
8:56 PM 15.8 °F 2.1 °F 15.8 °F 100% 29.90 in 10.0 mi North 12.7 mph 18.4 mph N/A   Overcast
9:16 PM 15.8 °F 5.1 °F 15.8 °F 100% 29.91 in 10.0 mi North 8.1 mph - N/A   Overcast
9:36 PM 17.6 °F 6.4 °F 15.8 °F 93% 29.91 in 10.0 mi North 9.2 mph - N/A   Overcast
9:56 PM 17.6 °F 7.3 °F 15.8 °F 93% 29.92 in 10.0 mi North 8.1 mph - N/A   Overcast
10:16 PM 17.6 °F 7.3 °F 15.8 °F 93% 29.93 in 10.0 mi NNE 8.1 mph - N/A   Overcast
10:36 PM 17.6 °F 5.7 °F 15.8 °F 93% 29.93 in 10.0 mi North 10.4 mph - N/A   Overcast
10:56 PM 17.6 °F 8.2 °F 15.8 °F 93% 29.94 in 10.0 mi North 6.9 mph - N/A   Overcast
11:16 PM 17.6 °F 9.3 °F 15.8 °F 93% 29.95 in 10.0 mi North 5.8 mph - N/A   Overcast
11:36 PM 17.6 °F 6.4 °F 15.8 °F 93% 29.96 in 6.0 mi North 9.2 mph - N/A   Overcast
11:56 PM 17.6 °F 8.2 °F 15.8 °F 93% 29.97 in 4.0 mi North 6.9 mph - N/A   Overcast